View from above orbital plane
|
View from above satellite
|
Ground track
|
The orbit data is extracted from the following two-line orbital elements,
1 42791U 17036AC 21023.39828933 .00001393 00000-0 59762-4 0 9992
2 42791 97.2730 77.6397 0009923 339.0545 21.0285 15.24307085199286
Epoch (UTC): | 23 January 2021 09:33:32 |
Eccentricity: | 0.0009923 |
inclination: | 97.2730° |
perigee height: | 486 km |
apogee height: | 499 km |
right ascension of ascending node: | 77.6397° |
argument of perigee: | 339.0545° |
revolutions per day: | 15.24307085 |
mean anomaly at epoch: | 21.0285° |
orbit number at epoch: | 19928 |
The dashed part of the orbit path shows where the satellite is in the earth's shadow,
|
|